Location: Poznań
(52.4062°N, 16.9234°E)
Time: 11:45:31
(UTC+02:00)

ISS - Visible Passes

Search period start: 24 May 2019 00:00
Search period end: 03 June 2019 00:00
Orbit: 408 x 418 km, 51.6° (Epoch: 24 May)

Date Brightness Start Highest point End Pass type
(mag) Time Alt. Az. Time Alt. Az. Time Alt. Az.
24 May -2.3 01:06:35 10° W 01:08:22 24° WSW 01:08:22 24° WSW visible
24 May -3.9 22:40:22 10° W 22:43:43 80° S 22:47:05 10° E visible
25 May -3.4 00:17:02 10° W 00:20:15 43° SSW 00:20:19 43° SSW visible
25 May -3.8 21:50:53 10° W 21:54:14 79° S 21:57:35 10° E visible
25 May -3.7 23:27:32 10° W 23:30:49 55° SSW 23:32:18 28° SE visible
26 May -1.3 01:04:38 10° W 01:05:06 12° WSW 01:05:06 12° WSW visible
26 May -3.8 22:38:01 10° W 22:41:21 68° SSW 22:44:20 13° ESE visible
27 May -2.4 00:14:52 10° W 00:17:08 24° SW 00:17:08 24° SW visible
27 May -3.8 21:48:31 10° W 21:51:51 76° S 21:55:13 10° E visible
27 May -3.0 23:25:14 10° W 23:28:20 35° SSW 23:29:10 30° S visible
28 May -3.4 22:35:39 10° W 22:38:54 46° SSW 22:41:15 17° SE visible
29 May -1.5 00:13:09 10° WSW 00:14:03 13° WSW 00:14:03 13° WSW visible
29 May -3.6 21:46:07 10° W 21:49:24 59° SSW 21:52:43 10° ESE visible
29 May -2.2 23:23:07 10° W 23:25:40 20° SW 23:26:08 19° SSW visible
30 May -2.6 22:33:21 10° W 22:36:17 28° SSW 22:38:15 16° SSE visible
31 May -1.3 23:22:10 10° SW 23:22:48 10° SW 23:23:12 10° SW visible
01 Jun -1.7 22:31:24 10° WSW 22:33:29 16° SW 22:35:22 11° S visible
